EDT,Max TemperatureF,Mean TemperatureF,Min TemperatureF,Max Dew PointF,MeanDew PointF,Min DewpointF,Max Humidity, Mean Humidity, Min Humidity, Max Sea Level PressureIn, Mean Sea Level PressureIn, Min Sea Level PressureIn, Max VisibilityMiles, Mean VisibilityMiles, Min VisibilityMiles, Max Wind SpeedMPH, Mean Wind SpeedMPH, Max Gust SpeedMPH,PrecipitationIn, CloudCover, Events, WindDirDegrees
2013-4-1,84,78,71,72,70,66,93,82,55,30.07,30.03,29.99,10,10,9,12,8,,0.00,1,,158
2013-4-2,82,76,70,70,68,63,94,78,56,30.10,30.05,30.01,10,10,8,10,4,,0.00,1,,13
2013-4-3,82,77,72,72,70,66,90,80,69,30.06,30.01,29.96,10,10,10,15,9,22,0.00,2,,108
2013-4-4,84,78,75,74,73,69,94,85,65,30.03,29.98,29.93,10,10,4,15,10,,0.00,4,,127
2013-4-5,77,72,66,73,66,61,94,85,78,29.99,29.92,29.83,10,8,0,20,11,29,1.27,7,Rain-Thunderstorm,7
2013-4-6,73,68,64,63,58,54,84,71,59,30.09,30.03,29.98,10,10,10,17,13,26,0.00,3,,356
2013-4-7,82,76,69,68,66,64,90,74,60,30.10,30.04,29.99,10,10,10,18,10,25,0.01,3,,78
2013-4-8,82,78,73,70,68,65,79,73,67,30.10,30.06,30.01,10,10,10,20,13,24,0.00,4,,100
2013-4-9,84,78,73,72,69,67,85,77,67,30.11,30.06,30.03,10,10,10,20,14,25,0.00,3,,91
2013-4-10,84,80,75,75,73,70,90,82,72,30.06,30.01,29.95,10,10,10,20,14,26,0.00,4,,100
2013-4-11,84,80,77,75,74,73,89,83,74,29.98,29.92,29.86,10,10,7,22,15,26,0.03,5,Rain,127
2013-4-12,84,80,77,76,75,74,90,83,74,29.97,29.92,29.87,10,10,10,16,10,24,0.00,3,,147
2013-4-13,87,82,78,76,74,71,93,79,63,29.98,29.93,29.88,10,10,4,13,8,,0.00,3,,134
2013-4-14,86,81,78,75,73,73,90,78,67,29.96,29.93,29.88,10,10,6,16,11,,0.00,2,,125
2013-4-15,87,82,78,77,74,66,93,78,51,30.04,29.97,29.92,10,9,2,10,6,,0.00,2,,173
2013-4-16,87,83,79,77,75,70,90,78,63,30.09,30.04,30.01,10,10,7,15,9,,0.00,2,,100
2013-4-17,87,82,78,73,72,70,79,72,61,30.08,30.03,29.99,10,10,8,17,13,22,0.00,2,,92
2013-4-18,87,82,77,73,72,71,88,73,61,30.03,29.98,29.94,10,10,7,22,15,28,0.00,3,,112
2013-4-19,88,82,79,75,73,71,85,75,65,30.04,30.00,29.95,10,10,5,18,15,26,0.00,3,,131
2013-4-20,88,82,78,76,74,73,90,79,65,30.07,30.01,29.96,10,10,6,12,7,,0.00,3,Thunderstorm-Tornado,218
2013-4-21,86,78,73,74,70,63,94,76,58,30.07,30.03,29.99,10,9,2,25,10,30,0.45,4,Rain-Thunderstorm,111
2013-4-22,84,78,73,74,70,64,91,78,65,30.06,30.00,29.93,10,10,7,15,7,21,0.08,5,Rain-Thunderstorm,77
2013-4-23,86,80,75,70,68,66,82,69,55,30.05,30.00,29.96,10,9,4,20,10,25,0.02,3,,58
2013-4-24,84,78,73,68,65,63,76,63,54,30.11,30.06,30.02,10,9,2,17,14,24,0.00,3,,81
2013-4-25,84,78,73,64,62,58,67,54,41,30.18,30.14,30.11,10,10,10,13,9,20,0.00,1,,59
2013-4-26,84,78,73,65,63,60,69,60,44,30.20,30.16,30.11,10,10,10,18,11,25,0.00,1,,71
2013-4-27,84,78,73,68,64,61,74,62,49,30.18,30.11,30.05,10,10,10,17,11,24,0.01,2,,73
2013-4-28,84,80,75,70,67,65,82,68,53,30.06,30.02,29.96,10,10,10,18,13,24,0.00,5,,97
2013-4-29,84,77,73,73,71,67,94,79,68,30.01,29.97,29.92,10,9,0,16,12,23,1.58,5,Fog-Rain-Thunderstorm,113
2013-4-30,84,80,75,73,72,71,88,76,67,29.98,29.94,29.90,10,10,10,14,11,21,0.00,4,,147